Wetbulb
70.26 69.84 69.67 69.60 69.57 69.36 69.30 69.55 69.26 69.07 69.18 69.00 68.74 68.58 67.20 64.38 60.73 61.73 65.30 67.20 70.44 70.02 70.19 70.66 70.28 70.45 71.27 71.36 70.20 68.81 68.14 67.78 67.67
68.78 69.01 69.50 69.45 69.40 69.33 69.23 69.06 69.08 69.18 69.10 69.17 69.40 69.29 67.76 62.25 60.27 60.35 62.49 64.12 70.11 70.75 70.12 69.71 69.98 69.58 70.75 70.69 70.33 68.90 68.20 67.73 66.77
65.14 65.72 66.38 66.74 67.48 68.26 68.87 69.30 69.07 68.98 68.85 68.84 68.75 69.09 67.87 64.16 60.98 60.32 60.33 64.21 68.91 70.45 69.77 69.70 69.22 68.89 69.93 70.45 70.27 68.99 67.90 66.96 67.13
62.40 62.49 63.85 64.50 65.07 65.52 66.02 67.25 68.90 68.90 68.76 68.78 68.69 67.85 66.90 63.99 62.04 61.72 60.46 64.84 68.44 70.10 70.18 70.12 69.91 69.42 70.05 70.39 70.22 69.00 68.13 67.24 66.79
57.29 58.10 59.20 60.76 62.09 63.06 63.80 64.30 65.12 67.23 68.48 68.56 68.10 66.94 66.29 62.37 61.44 60.87 60.33 65.95 68.68 69.49 69.65 70.24 70.63 70.76 70.77 70.39 70.08 70.02 68.58 67.68 67.19
47.93 52.41 53.76 55.88 57.90 59.52 61.07 61.96 61.72 61.78 63.95 66.01 66.34 65.60 63.61 62.67 62.23 60.92 63.03 65.57 67.80 69.43 69.16 69.70 70.47 70.51 70.28 70.46 70.23 70.41 69.03 68.40 67.82
44.83 45.72 48.46 49.25 51.45 53.33 56.85 58.39 58.32 57.37 58.00 60.53 63.16 62.76 62.30 62.27 62.51 62.23 64.86 66.29 66.40 67.81 69.49 69.71 69.38 70.34 70.16 70.12 70.04 69.93 70.10 68.86 67.92
40.19 40.16 40.33 40.41 44.14 43.13 47.09 49.94 51.94 52.82 54.86 55.76 57.73 59.68 61.62 61.90 62.20 62.95 64.84 66.43 66.38 66.87 69.16 69.40 69.82 69.63 70.69 70.07 69.73 69.73 69.76 69.09 68.77
36.22 38.00 38.54 38.46 39.26 39.68 41.05 42.97 46.02 48.49 52.35 53.66 54.46 55.41 57.30 60.05 61.68 63.15 63.40 64.86 66.61 66.91 68.65 69.73 69.10 69.18 69.33 70.26 70.43 69.79 69.46 69.62 69.14
34.96 35.91 37.15 37.25 37.91 38.40 38.62 39.52 40.09 41.91 48.03 49.22 52.55 53.29 54.27 56.14 58.09 59.95 62.59 64.14 65.12 66.46 66.90 69.17 69.41 69.54 68.66 68.98 70.11 69.86 69.37 69.67 69.42
33.01 34.00 34.79 35.46 36.34 37.24 37.72 37.96 37.59 39.75 40.82 43.32 46.59 50.30 52.96 54.16 54.93 56.61 58.98 62.84 64.51 65.47 65.37 67.92 68.65 68.56 68.71 68.87 69.51 69.63 69.71 69.50 69.48
31.44 32.57 32.69 33.59 34.61 35.27 35.90 36.49 36.85 37.55 38.17 37.60 42.56 46.42 47.49 50.99 52.69 54.02 56.26 59.11 62.31 64.21 65.88 66.09 67.49 67.87 67.92 68.23 69.08 70.05 69.59 69.68 69.04
30.98 31.70 31.45 32.71 33.16 33.38 33.13 33.81 34.31 34.84 34.45 36.51 38.94 39.64 42.11 45.80 50.80 53.05 54.76 57.20 59.29 62.10 64.47 65.45 66.14 66.43 67.20 67.79 68.31 69.71 68.91 69.03 69.06
30.56 31.07 31.06 32.00 31.90 31.60 31.71 32.02 32.80 31.45 32.50 36.40 35.53 36.16 37.22 46.26 49.72 50.04 51.79 53.88 56.21 58.13 61.02 63.16 63.74 64.74 65.92 66.95 67.87 68.68 69.09 68.40 68.80
29.87 30.30 30.27 31.08 30.50 30.38 30.49 30.03 31.07 30.82 32.69 33.28 33.49 35.50 37.32 37.24 38.51 43.11 49.49 51.12 52.94 55.15 57.30 59.07 61.39 62.22 64.02 65.46 67.04 67.76 68.98 68.62 68.54
28.98 29.33 29.56 29.83 29.05 29.11 29.76 29.60 29.00 29.43 31.54 30.19 32.00 33.60 36.66 37.84 39.77 46.17 49.27 50.32 51.90 53.18 55.18 56.49 57.94 59.51 62.78 64.09 65.04 66.60 67.68 68.94 68.13
29.13 28.33 28.43 28.62 28.22 27.91 27.99 27.97 27.47 29.22 29.71 28.32 29.15 31.69 33.62 36.53 37.74 43.11 47.11 47.67 48.55 49.93 51.71 52.95 55.30 57.29 58.85 60.43 63.09 64.71 66.02 67.34 67.98
28.21 28.03 27.83 27.48 27.71 26.79 27.05 27.17 26.98 25.35 27.56 29.51 28.11 25.70 27.20 29.11 36.57 37.04 38.69 36.05 37.04 39.84 48.28 50.83 52.35 54.73 57.32 59.46 60.42 61.91 63.48 64.50 65.85
27.49 27.67 27.09 26.76 27.15 26.27 26.46 28.48 26.62 26.24 24.34 27.48 30.34 29.24 28.56 25.31 24.67 33.64 33.20 34.77 36.42 40.45 38.56 40.08 47.80 49.29 52.60 55.62 57.60 59.09 60.90 63.58 65.20
26.60 26.74 26.17 25.70 26.08 25.95 25.83 25.77 25.56 26.26 25.04 25.22 26.08 26.44 27.33 27.58 25.98 23.06 27.66 33.85 34.79 34.88 35.31 38.29 37.02 40.04 50.29 52.09 54.08 56.79 58.91 60.91 63.37
MSLP
1019.96 1019.90 1019.84 1019.75 1019.63 1019.51 1019.50 1019.37 1019.33 1019.20 1019.16 1019.02 1018.92 1018.91 1018.88 1018.76 1018.68 1018.58 1018.37 1018.19 1017.99 1017.72 1017.72 1017.74 1017.73 1017.72 1017.80 1017.94 1018.08 1018.15 1018.30 1018.34 1018.54
1020.62 1020.42 1020.16 1019.92 1019.75 1019.63 1019.50 1019.39 1019.34 1019.26 1019.18 1019.05 1019.01 1018.96 1018.92 1018.92 1018.94 1018.76 1018.52 1018.40 1018.06 1017.72 1017.80 1017.74 1017.75 1017.80 1017.84 1017.97 1018.14 1018.26 1018.38 1018.43 1018.52
1021.42 1021.15 1020.74 1020.54 1020.19 1019.98 1019.74 1019.50 1019.33 1019.20 1019.12 1019.08 1018.98 1018.96 1018.93 1018.92 1018.96 1018.87 1018.70 1018.36 1018.00 1017.68 1017.63 1017.72 1017.69 1017.72 1017.85 1018.00 1018.19 1018.26 1018.38 1018.53 1018.64
1022.17 1021.98 1021.61 1021.32 1020.94 1020.60 1020.23 1019.86 1019.41 1019.22 1019.08 1018.99 1018.97 1018.91 1018.91 1018.93 1018.94 1018.88 1018.72 1018.37 1017.99 1017.65 1017.57 1017.62 1017.59 1017.68 1017.78 1017.92 1018.16 1018.18 1018.30 1018.48 1018.56
1022.87 1022.62 1022.38 1022.00 1021.63 1021.22 1020.78 1020.41 1020.00 1019.57 1019.19 1019.06 1018.95 1018.88 1018.85 1018.89 1018.83 1018.74 1018.67 1018.40 1017.99 1017.68 1017.62 1017.51 1017.57 1017.54 1017.61 1017.77 1017.88 1018.04 1018.22 1018.48 1018.62
1023.77 1023.43 1023.04 1022.60 1022.23 1021.83 1021.44 1021.04 1020.62 1020.20 1019.76 1019.41 1019.20 1019.04 1018.98 1018.79 1018.70 1018.62 1018.34 1018.19 1018.00 1017.66 1017.53 1017.54 1017.50 1017.46 1017.53 1017.63 1017.82 1017.83 1017.98 1018.29 1018.52
1024.51 1024.14 1023.69 1023.28 1022.86 1022.42 1021.96 1021.60 1021.24 1020.91 1020.61 1020.09 1019.57 1019.31 1019.05 1018.86 1018.70 1018.41 1018.15 1017.93 1017.74 1017.61 1017.49 1017.37 1017.35 1017.34 1017.43 1017.48 1017.67 1017.79 1017.82 1018.08 1018.40
1025.42 1025.07 1024.66 1024.32 1023.75 1023.25 1022.67 1022.20 1021.85 1021.63 1021.28 1020.79 1020.36 1019.75 1019.20 1018.84 1018.56 1018.37 1018.09 1017.79 1017.51 1017.31 1017.12 1017.20 1017.18 1017.14 1017.19 1017.30 1017.41 1017.72 1017.79 1017.95 1018.20
1026.36 1025.98 1025.66 1025.23 1024.84 1024.41 1023.94 1023.25 1022.69 1022.13 1021.62 1021.22 1020.62 1020.19 1019.71 1019.12 1018.56 1018.13 1017.98 1017.73 1017.34 1017.09 1016.83 1016.71 1016.94 1016.96 1017.02 1017.06 1017.12 1017.31 1017.57 1017.68 1017.99
1027.41 1026.90 1026.46 1026.12 1025.62 1025.22 1024.75 1024.09 1023.39 1022.69 1022.01 1021.51 1020.96 1020.36 1019.85 1019.37 1018.84 1018.29 1017.80 1017.53 1017.23 1016.87 1016.61 1016.42 1016.39 1016.48 1016.64 1016.84 1016.88 1017.00 1017.12 1017.34 1017.59
1027.87 1027.41 1027.03 1026.66 1026.24 1025.79 1025.26 1024.69 1024.13 1023.44 1022.78 1021.86 1021.17 1020.60 1019.94 1019.42 1018.89 1018.37 1017.80 1017.31 1016.89 1016.69 1016.43 1016.16 1016.08 1016.03 1016.03 1016.15 1016.36 1016.50 1016.62 1016.76 1017.15
1028.44 1027.95 1027.64 1027.28 1026.80 1026.22 1025.50 1024.95 1024.45 1023.68 1023.05 1022.43 1021.60 1020.73 1020.04 1019.28 1018.76 1018.25 1017.71 1017.19 1016.76 1016.41 1016.22 1016.00 1015.79 1015.68 1015.63 1015.51 1015.57 1015.64 1015.88 1016.07 1016.44
1028.90 1028.48 1028.15 1027.73 1027.15 1026.63 1026.12 1025.48 1024.79 1024.27 1023.58 1022.62 1021.60 1020.90 1020.12 1019.27 1018.45 1017.91 1017.50 1017.00 1016.49 1016.11 1015.90 1015.79 1015.55 1015.42 1015.22 1015.08 1014.92 1014.97 1015.34 1015.57 1015.75
1029.26 1028.89 1028.55 1028.02 1027.52 1027.14 1026.67 1026.06 1025.52 1024.72 1023.75 1022.84 1021.82 1020.75 1019.94 1019.00 1018.20 1017.64 1016.95 1016.58 1016.28 1015.87 1015.52 1015.44 1015.27 1015.16 1015.03 1014.75 1014.54 1014.35 1014.59 1014.85 1015.13
1029.52 1029.04 1028.75 1028.25 1027.84 1027.45 1026.97 1026.43 1025.91 1025.38 1024.29 1023.14 1021.66 1020.61 1019.60 1018.69 1017.86 1017.12 1016.53 1016.04 1015.71 1015.55 1015.34 1015.04 1014.84 1014.64 1014.59 1014.43 1014.32 1013.95 1013.83 1014.18 1014.44
1029.73 1029.47 1029.07 1028.60 1028.27 1027.76 1027.12 1026.62 1026.07 1025.22 1024.71 1023.39 1021.68 1020.03 1018.65 1017.89 1017.46 1016.83 1016.49 1016.08 1015.60 1015.27 1015.14 1015.06 1014.68 1014.37 1014.11 1013.85 1013.81 1013.76 1013.45 1013.28 1013.66
1029.88 1029.52 1029.08 1028.71 1028.35 1027.90 1027.44 1026.96 1026.29 1025.68 1025.59 1024.97 1023.68 1020.82 1018.60 1018.23 1017.60 1017.22 1016.71 1016.42 1016.13 1015.65 1015.17 1014.98 1014.72 1014.31 1013.88 1013.60 1013.45 1013.31 1013.28 1013.01 1012.76
1029.89 1029.58 1029.19 1028.79 1028.44 1028.04 1027.46 1027.01 1026.60 1026.17 1025.87 1025.53 1025.38 1023.58 1021.56 1020.20 1018.07 1017.42 1017.34 1017.18 1016.73 1016.12 1015.61 1015.07 1014.76 1014.39 1013.96 1013.47 1013.02 1012.79 1012.65 1011.95 1012.39
1029.84 1029.47 1029.05 1028.63 1028.26 1027.92 1027.36 1026.69 1026.72 1026.37 1025.79 1025.50 1024.86 1024.51 1023.94 1022.82 1019.47 1018.05 1017.85 1017.68 1017.11 1016.60 1016.29 1015.92 1015.13 1014.64 1014.12 1013.54 1013.00 1012.54 1012.19 1011.92 1011.56
1029.55 1029.13 1028.75 1028.36 1028.00 1027.58 1027.21 1026.71 1026.33 1026.09 1025.78 1025.32 1024.82 1024.28 1023.56 1023.12 1021.98 1018.71 1018.34 1017.85 1017.51 1017.06 1016.68 1015.90 1015.64 1014.96 1014.12 1013.59 1013.09 1012.55 1012.11 1011.65 1011.27
Wind_Speed
12 11 9 9 9 9 8 8 7 8 8 8 8 8 10 8 6 5 6 4 6 3 4 4 5 5 7 9 11 9 8 9 9
21 20 17 13 12 11 10 9 9 7 7 8 8 7 7 5 5 5 5 5 10 8 6 6 5 5 5 8 11 9 8 8 7
24 24 23 21 19 17 15 13 10 9 8 8 8 7 7 5 5 5 5 9 11 11 9 7 7 6 5 8 10 10 8 7 7
24 24 24 23 22 22 22 19 15 11 10 9 7 8 7 4 3 5 4 9 12 10 11 9 8 8 8 8 12 12 11 9 8
24 24 24 24 23 23 22 22 22 19 13 10 9 8 7 4 5 3 4 14 10 9 11 10 10 10 9 10 14 12 13 10 9
15 20 24 24 24 23 23 24 23 21 18 15 12 10 3 4 3 3 10 12 14 13 9 11 11 9 9 10 14 14 14 13 11
12 15 20 20 23 22 23 22 21 18 9 7 11 4 5 4 4 3 12 14 14 15 14 11 12 10 10 10 13 15 14 14 13
8 8 9 10 17 9 12 11 8 11 8 8 8 8 6 3 3 5 13 14 16 15 16 13 11 12 11 12 14 15 15 15 14
8 7 8 8 8 10 10 7 9 9 9 9 9 9 7 6 4 5 11 14 15 17 17 15 13 13 13 14 14 15 16 15 15
8 8 8 8 8 8 9 9 9 9 9 9 8 9 8 8 5 5 12 13 15 16 16 16 16 16 15 16 16 17 18 18 17
7 7 8 8 8 9 8 8 9 8 8 10 9 9 8 8 7 6 7 14 14 16 17 16 17 17 16 16 17 19 20 20 19
8 6 7 8 8 10 8 9 9 8 8 9 9 9 9 8 9 8 6 7 12 13 16 17 18 18 17 18 17 18 22 21 21
7 6 7 8 7 7 8 8 9 8 9 9 9 9 10 11 9 7 6 6 6 8 13 15 17 19 19 18 19 17 20 22 22
8 6 7 8 7 7 8 8 7 9 10 10 11 10 9 10 10 10 9 9 8 6 9 11 13 15 18 20 20 20 19 21 22
9 6 8 8 7 7 8 9 8 8 8 11 11 8 10 10 10 10 8 7 7 7 7 5 6 11 16 19 21 22 19 20 22
9 7 8 8 8 8 9 8 10 8 7 7 9 9 11 11 7 6 6 7 6 5 5 4 4 5 12 16 20 22 23 20 21
10 9 8 9 7 9 8 8 8 6 7 6 8 8 5 6 7 6 5 6 7 7 6 6 6 6 5 8 15 19 23 24 22
9 9 8 8 7 7 7 7 7 7 7 5 3 6 5 12 3 7 7 10 9 9 6 7 8 7 6 8 9 14 17 18 24
9 9 8 8 7 8 7 8 7 7 7 6 4 5 5 5 10 3 13 14 10 8 8 10 8 9 7 9 11 13 16 20 20
10 10 10 9 7 8 9 9 8 6 7 7 7 8 8 9 8 16 10 9 8 9 11 6 9 11 9 7 8 13 16 18 20
Wind_Direction
30 28 26 19 11 8 1 358 359 0 358 3 12 16 14 14 6 349 339 305 282 202 156 137 144 156 164 153 138 129 127 119 119
28 23 14 12 11 4 353 348 342 337 341 342 344 356 5 12 353 341 328 324 283 235 205 187 185 194 191 166 150 139 137 135 128
32 28 26 19 14 8 1 350 341 334 327 323 329 343 346 350 334 323 314 305 310 260 206 207 202 207 211 183 166 149 149 157 149
31 27 24 22 20 19 14 4 346 335 326 319 320 325 330 332 316 316 310 304 306 293 228 211 213 217 216 201 180 167 162 168 164
23 23 20 19 16 16 14 11 10 355 333 329 329 323 323 321 308 295 294 309 299 299 239 220 227 234 215 215 190 179 170 171 175
18 17 17 15 13 13 12 9 9 7 2 349 341 333 312 298 284 291 290 298 303 291 254 239 236 224 221 213 201 185 182 178 181
19 16 17 15 12 8 6 6 6 5 356 349 350 335 319 305 293 275 287 291 286 294 276 231 233 234 227 222 210 200 188 182 188
11 8 6 2 3 5 360 358 1 352 351 348 344 340 337 317 303 293 289 288 284 280 268 251 232 232 231 231 215 211 198 190 192
9 9 5 6 359 356 354 349 344 343 342 341 336 338 337 328 322 310 293 293 285 282 276 247 248 248 242 237 228 211 208 193 197
0 1 2 2 356 355 347 344 344 338 340 334 331 327 323 322 323 317 310 302 296 285 275 265 249 247 242 245 238 220 207 203 199
6 0 2 360 354 347 345 339 339 329 334 327 326 315 309 312 308 307 308 306 298 293 280 264 264 262 258 245 243 231 214 209 204
1 358 358 354 347 343 345 342 338 336 333 322 315 312 311 301 298 299 291 295 295 286 288 277 264 261 263 262 255 233 223 212 209
0 355 354 345 346 347 347 346 337 336 331 322 317 311 303 296 286 280 280 285 286 291 291 280 279 270 266 262 259 245 234 226 215
359 349 346 344 346 347 346 343 337 330 325 319 311 302 293 288 291 280 270 267 269 271 273 271 256 269 270 265 259 254 237 232 227
352 349 344 346 344 342 341 337 337 323 317 317 299 294 289 275 268 270 271 261 258 264 267 275 276 255 262 270 266 255 250 238 230
344 343 338 342 342 334 335 330 331 330 342 319 321 291 267 272 272 270 280 286 284 276 277 282 275 275 266 260 261 266 256 244 237
337 335 334 331 327 329 332 333 328 327 360 312 299 325 316 13 318 301 335 354 349 337 326 312 299 288 280 268 263 257 265 259 250
322 322 318 319 321 315 317 319 316 319 320 321 302 315 303 341 280 325 336 342 330 318 330 332 326 311 300 287 275 262 255 257 270
313 309 307 305 302 301 300 307 306 303 303 307 264 266 299 302 308 263 322 311 316 339 337 326 332 329 315 303 290 282 279 272 258
301 303 305 301 297 291 289 291 290 282 280 277 280 280 269 265 270 291 297 295 305 314 305 316 317 314 305 314 301 302 301 294 286